Find Starlink 31131

NORAD ID: 58673 Int'l Des: 2023-211 Owner: SPXS Country: US Constellation: starlink operational
LEOCIRCULAR

实时位置

正在加载3D地球...

关于 Starlink 31131

正在加载描述...

即将过境

Passes for default location (London). Set your location on the main map for personalized predictions.

高度历史

Loading altitude history...

两行轨道根数

1 58673U 23211G 26132.87137468 -.00000913 00000-0 -23658-4 0 9999
2 58673 43.0031 72.0189 0000632 274.2649 85.8130 15.27573030133683
Epoch: May 12, 2026 • Age: 5 hours

当前状态

高度 485.1 km
速度 7.63 km/s
星下点 36.20°N, 136.9°W
发射日期 Dec 29, 2023
运行时间 2.3 years
类型 internet

技术详情

分类 Payload
质量 730.00 kg
干质量 700.00 kg
总质量 730.00 kg
长度 0.30 m
直径 4.10 m
跨度 29.00 m
形状 Box + pan
制造商 SPXS
平台类型 Starlink V2M
阶段状态 In Orbit
所有者/国家 SPXS/US

Most Searched